カタログに戻る

NOAA 16 DEB

運用中PO
NORAD 41270·DEBRIS·🇺🇸 United States

打ち上げ Sep 21, 2000 から Vandenberg Space Force Base

Loading…

次のパス (今後24時間)

TLE

最新Source: Space-Track

元期: Sep 14, 2026, 03:55 UTC

1 41270U 00055FW  26257.16376277  .00005082  00000-0  16644-2 0  9993
2 41270  98.9788  37.4966 0017931 332.5054  27.5182 14.38809563553660

AllMySatでNOAA 16 DEBをリアルタイム追跡

Download on the App Store